Location: Wildlife_Club
(35.6000°N, 81.4330°W)
Time: 00:37:53
(UTC-04:00)

Vanguard 2 Rocket - Pass Details

Date: 21 June 2019
Orbit: 554 x 3326 km, 32.9° (Epoch: 23 July)

Event Time Altitude Azimuth Distance (km) Brightness Sun altitude
Rises 23:45:24 0° 253° (WSW) 4,051 10.3 -26.2°
Reaches altitude 10° 23:47:39 10° 251° (WSW) 3,350 9.8 -26.4°
Maximum altitude 23:56:31 74° 168° (SSE) 2,000 8.3 -27.1°
Drops below altitude 10° 00:12:32 10° 87° (E) 5,706 10.8 -28.3°
Sets 00:17:42 0° 86° (E) 7,007 11.3 -28.7°
